| time (UTC) | temp F | wind direction | speed MPH | gust MPH | rain 1hr in | rain 24hr in | rain mn in | humidity % | barometer mb |
| 20260903093533 | 76 | 134 | 9.0 | 11.0 | 0.00 | 0.00 | 0.00 | 93 | 1014.4 |
| 20260903093029 | 76 | 167 | 8.0 | 9.0 | 0.00 | 0.00 | 0.00 | 94 | 1014.5 |
| 20260903092522 | 76 | 131 | 5.0 | 6.0 | 0.00 | 0.00 | 0.00 | 94 | 1014.4 |
| 20260903092022 | 76 | 155 | 5.0 | 6.0 | 0.00 | 0.00 | 0.00 | 94 | 1014.7 |
| 20260903091520 | 76 | 161 | 5.0 | 8.0 | 0.00 | 0.00 | 0.00 | 94 | 1014.7 |
| 20260903091015 | 76 | 138 | 5.0 | 6.0 | 0.00 | 0.00 | 0.00 | 94 | 1014.7 |
| 20260903090512 | 76 | 167 | 5.0 | 6.0 | 0.00 | 0.00 | 0.00 | 94 | 1014.8 |
| 20260903090010 | 76 | 138 | 5.0 | 6.0 | 0.00 | 0.00 | 0.00 | 94 | 1014.7 |
| 20260903085508 | 76 | 137 | 8.0 | 9.0 | 0.00 | 0.00 | 0.00 | 93 | 1014.9 |
| 20260903085004 | 76 | 152 | 7.0 | 8.0 | 0.00 | 0.00 | 0.00 | 93 | 1014.6 |
| 20260903084502 | 76 | 127 | 8.0 | 10.0 | 0.00 | 0.00 | 0.00 | 93 | 1014.7 |
| 20260903083957 | 76 | 124 | 10.0 | 11.0 | 0.00 | 0.00 | 0.00 | 93 | 1014.4 |
| 20260903083453 | 76 | 127 | 7.0 | 8.0 | 0.00 | 0.00 | 0.00 | 92 | 1014.8 |
| 20260903082953 | 76 | 138 | 11.0 | 14.0 | 0.00 | 0.00 | 0.00 | 92 | 1014.6 |
| 20260903082447 | 76 | 118 | 7.0 | 9.0 | 0.00 | 0.00 | 0.00 | 92 | 1014.7 |
| 20260903081942 | 76 | 125 | 7.0 | 9.0 | 0.00 | 0.00 | 0.00 | 92 | 1014.9 |
| 20260903081438 | 76 | 107 | 7.0 | 10.0 | 0.00 | 0.00 | 0.00 | 91 | 1014.7 |
| 20260903080934 | 76 | 112 | 8.0 | 9.0 | 0.00 | 0.00 | 0.00 | 90 | 1014.8 |
| 20260903080430 | 77 | 124 | 9.0 | 13.0 | 0.00 | 0.00 | 0.00 | 89 | 1014.8 |
| 20260903075925 | 78 | 106 | 14.0 | 16.0 | 0.00 | 0.00 | 0.00 | 85 | 1014.8 |
| 20260903075421 | 78 | 121 | 8.0 | 8.0 | 0.00 | 0.00 | 0.00 | 84 | 1014.6 |
| 20260903074915 | 78 | 101 | 9.0 | 10.0 | 0.00 | 0.00 | 0.00 | 84 | 1014.7 |
| 20260903074415 | 78 | 119 | 7.0 | 8.0 | 0.00 | 0.00 | 0.00 | 83 | 1014.7 |
| 20260903073910 | 78 | 130 | 8.0 | 9.0 | 0.00 | 0.00 | 0.00 | 83 | 1014.5 |
| 20260903073405 | 78 | 140 | 7.0 | 8.0 | 0.00 | 0.00 | 0.00 | 83 | 1014.5 |
| 20260903072901 | 78 | 107 | 7.0 | 9.0 | 0.00 | 0.00 | 0.00 | 83 | 1014.6 |
| 20260903072357 | 79 | 132 | 11.0 | 13.0 | 0.00 | 0.00 | 0.00 | 82 | 1014.5 |
| 20260903071854 | 79 | 130 | 5.0 | 6.0 | 0.00 | 0.00 | 0.00 | 82 | 1014.7 |
| 20260903071349 | 78 | 112 | 10.0 | 11.0 | 0.00 | 0.00 | 0.00 | 82 | 1014.7 |
| 20260903070845 | 79 | 114 | 9.0 | 11.0 | 0.00 | 0.00 | 0.00 | 82 | 1014.8 |
| 20260903070339 | 79 | 108 | 10.0 | 11.0 | 0.00 | 0.00 | 0.00 | 81 | 1014.8 |
| 20260903065834 | 79 | 140 | 15.0 | 18.0 | 0.00 | 0.00 | 0.00 | 81 | 1015.0 |
| 20260903065333 | 79 | 119 | 11.0 | 13.0 | 0.00 | 0.00 | 0.00 | 80 | 1015.0 |
| 20260903064833 | 79 | 159 | 14.0 | 16.0 | 0.00 | 0.00 | 0.00 | 79 | 1014.8 |
| 20260903064329 | 79 | 122 | 9.0 | 11.0 | 0.00 | 0.00 | 0.00 | 79 | 1014.9 |
| 20260903063824 | 80 | 145 | 12.0 | 14.0 | 0.00 | 0.00 | 0.00 | 79 | 1014.8 |
| 20260903063319 | 80 | 136 | 6.0 | 7.0 | 0.00 | 0.00 | 0.00 | 78 | 1015.0 |
| 20260903062815 | 80 | 103 | 9.0 | 11.0 | 0.00 | 0.00 | 0.00 | 78 | 1015.0 |
| 20260903062314 | 80 | 159 | 8.0 | 9.0 | 0.00 | 0.00 | 0.00 | 78 | 1015.1 |
| 20260903061811 | 80 | 117 | 6.0 | 8.0 | 0.00 | 0.00 | 0.00 | 77 | 1014.9 |
| 20260903061310 | 80 | 131 | 8.0 | 10.0 | 0.00 | 0.00 | 0.00 | 76 | 1014.8 |
| 20260903060806 | 80 | 106 | 8.0 | 10.0 | 0.00 | 0.00 | 0.00 | 76 | 1014.8 |
| 20260903060305 | 80 | 143 | 9.0 | 11.0 | 0.00 | 0.00 | 0.00 | 75 | 1014.7 |
| 20260903055803 | 80 | 102 | 12.0 | 14.0 | 0.00 | 0.00 | 0.00 | 75 | 1015.0 |
| 20260903055301 | 80 | 95 | 5.0 | 6.0 | 0.00 | 0.00 | 0.00 | 74 | 1015.1 |
| 20260903054757 | 80 | 132 | 5.0 | 6.0 | 0.00 | 0.00 | 0.00 | 74 | 1015.1 |
| 20260903054252 | 80 | 90 | 7.0 | 8.0 | 0.00 | 0.00 | 0.00 | 74 | 1015.2 |
| 20260903053748 | 80 | 101 | 7.0 | 8.0 | 0.00 | 0.00 | 0.00 | 74 | 1015.1 |
| 20260903053248 | 80 | 95 | 7.0 | 8.0 | 0.00 | 0.00 | 0.00 | 74 | 1015.2 |
| 20260903052744 | 80 | 92 | 6.0 | 7.0 | 0.00 | 0.00 | 0.00 | 74 | 1015.1 |
| 20260903052239 | 80 | 96 | 4.0 | 5.0 | 0.00 | 0.00 | 0.00 | 75 | 1015.1 |
| 20260903051734 | 79 | 94 | 6.0 | 8.0 | 0.00 | 0.00 | 0.00 | 75 | 1015.3 |
| 20260903051230 | 80 | 84 | 5.0 | 6.0 | 0.00 | 0.00 | 0.00 | 75 | 1015.2 |
| 20260903050726 | 80 | 105 | 5.0 | 6.0 | 0.00 | 0.00 | 0.00 | 74 | 1015.4 |
| 20260903050224 | 80 | 108 | 5.0 | 6.0 | 0.00 | 0.00 | 0.00 | 74 | 1015.2 |
| 20260903045719 | 80 | 91 | 5.0 | 7.0 | 0.00 | 0.00 | 0.00 | 74 | 1015.3 |
| 20260903045216 | 80 | 95 | 3.0 | 6.0 | 0.00 | 0.00 | 0.00 | 73 | 1015.7 |
| 20260903044711 | 80 | 121 | 7.0 | 8.0 | 0.00 | 0.00 | 0.00 | 73 | 1015.5 |
| 20260903044207 | 80 | 111 | 6.0 | 7.0 | 0.00 | 0.00 | 0.00 | 72 | 1015.7 |
| 20260903043704 | 81 | 154 | 6.0 | 7.0 | 0.00 | 0.00 | 0.00 | 72 | 1015.8 |
| 20260903043203 | 81 | 131 | 4.0 | 5.0 | 0.00 | 0.00 | 0.00 | 72 | 1015.9 |
| 20260903042702 | 81 | 160 | 8.0 | 10.0 | 0.00 | 0.00 | 0.00 | 72 | 1015.5 |
| 20260903042157 | 81 | 87 | 8.0 | 10.0 | 0.00 | 0.00 | 0.00 | 71 | 1015.6 |
| 20260903041654 | 81 | 107 | 7.0 | 8.0 | 0.00 | 0.00 | 0.00 | 71 | 1015.6 |
| 20260903041149 | 81 | 94 | 8.0 | 10.0 | 0.00 | 0.00 | 0.00 | 71 | 1015.5 |
| 20260903040648 | 81 | 120 | 6.0 | 7.0 | 0.00 | 0.00 | 0.00 | 70 | 1015.5 |
| 20260903040144 | 82 | 113 | 6.0 | 7.0 | 0.00 | 0.00 | 0.00 | 69 | 1015.6 |
| 20260903035640 | 82 | 127 | 6.0 | 8.0 | 0.00 | 0.00 | 0.00 | 68 | 1015.6 |
| 20260903035135 | 82 | 114 | 4.0 | 5.0 | 0.00 | 0.00 | 0.00 | 68 | 1015.5 |
| 20260903034630 | 82 | 86 | 5.0 | 6.0 | 0.00 | 0.00 | 0.00 | 67 | 1015.5 |
| 20260903034125 | 82 | 110 | 4.0 | 5.0 | 0.00 | 0.00 | 0.00 | 66 | 1015.4 |
| 20260903033620 | 83 | 97 | 7.0 | 8.0 | 0.00 | 0.00 | 0.00 | 65 | 1015.4 |
| 20260903033115 | 83 | 100 | 4.0 | 6.0 | 0.00 | 0.00 | 0.00 | 65 | 1015.3 |
| 20260903032610 | 83 | 75 | 7.0 | 10.0 | 0.00 | 0.00 | 0.00 | 64 | 1015.4 |
| 20260903032105 | 83 | 101 | 7.0 | 7.0 | 0.00 | 0.00 | 0.00 | 63 | 1015.4 |
| 20260903031600 | 84 | 111 | 7.0 | 9.0 | 0.00 | 0.00 | 0.00 | 63 | 1015.4 |
| 20260903031055 | 84 | 113 | 5.0 | 7.0 | 0.00 | 0.00 | 0.00 | 63 | 1015.4 |
| 20260903030551 | 84 | 107 | 8.0 | 10.0 | 0.00 | 0.00 | 0.00 | 62 | 1015.4 |
| 20260903030047 | 84 | 102 | 7.0 | 9.0 | 0.00 | 0.00 | 0.00 | 61 | 1015.5 |
| 20260903025542 | 84 | 107 | 8.0 | 10.0 | 0.00 | 0.00 | 0.00 | 61 | 1015.4 |
| 20260903025038 | 85 | 116 | 7.0 | 8.0 | 0.00 | 0.00 | 0.00 | 61 | 1015.4 |
| 20260903024537 | 85 | 115 | 7.0 | 9.0 | 0.00 | 0.00 | 0.00 | 61 | 1015.4 |
| 20260903024032 | 85 | 100 | 7.0 | 9.0 | 0.00 | 0.00 | 0.00 | 61 | 1015.3 |
| 20260903023527 | 85 | 120 | 9.0 | 11.0 | 0.00 | 0.00 | 0.00 | 61 | 1015.2 |
| 20260903023023 | 85 | 101 | 6.0 | 7.0 | 0.00 | 0.00 | 0.00 | 60 | 1015.2 |
| 20260903022522 | 86 | 109 | 8.0 | 8.0 | 0.00 | 0.00 | 0.00 | 60 | 1015.1 |
| 20260903022020 | 86 | 114 | 6.0 | 9.0 | 0.00 | 0.00 | 0.00 | 60 | 1015.1 |
| 20260903021515 | 86 | 104 | 7.0 | 7.0 | 0.00 | 0.00 | 0.00 | 59 | 1015.0 |
| 20260903021010 | 86 | 88 | 8.0 | 9.0 | 0.00 | 0.00 | 0.00 | 58 | 1014.8 |
| 20260903020506 | 87 | 145 | 9.0 | 10.0 | 0.00 | 0.00 | 0.00 | 58 | 1014.6 |
| 20260903020006 | 87 | 99 | 6.0 | 7.0 | 0.00 | 0.00 | 0.00 | 58 | 1014.4 |
| 20260903015502 | 87 | 124 | 5.0 | 7.0 | 0.00 | 0.00 | 0.00 | 57 | 1014.4 |
| 20260903014956 | 87 | 120 | 8.0 | 9.0 | 0.00 | 0.00 | 0.00 | 56 | 1014.6 |
| 20260903014455 | 88 | 111 | 6.0 | 8.0 | 0.00 | 0.00 | 0.00 | 55 | 1014.4 |
| 20260903013950 | 88 | 160 | 12.0 | 14.0 | 0.00 | 0.00 | 0.00 | 55 | 1014.2 |
| 20260903013445 | 88 | 106 | 8.0 | 9.0 | 0.00 | 0.00 | 0.00 | 54 | 1014.3 |
| 20260903012944 | 89 | 126 | 6.0 | 7.0 | 0.00 | 0.00 | 0.00 | 53 | 1014.2 |
| 20260903012443 | 89 | 106 | 4.0 | 5.0 | 0.00 | 0.00 | 0.00 | 53 | 1013.8 |
| 20260903011942 | 89 | 99 | 3.0 | 3.0 | 0.00 | 0.00 | 0.00 | 52 | 1013.9 |
| 20260903011437 | 89 | 92 | 8.0 | 9.0 | 0.00 | 0.00 | 0.00 | 52 | 1013.9 |
| 20260903010932 | 90 | 93 | 7.0 | 8.0 | 0.00 | 0.00 | 0.00 | 52 | 1013.8 |
| 20260903010428 | 90 | 82 | 6.0 | 7.0 | 0.00 | 0.00 | 0.00 | 51 | 1014.0 |
| 20260903005925 | 90 | 96 | 6.0 | 8.0 | 0.00 | 0.00 | 0.00 | 50 | 1013.6 |
| 20260903005420 | 91 | 78 | 7.0 | 10.0 | 0.00 | 0.00 | 0.00 | 50 | 1013.8 |
| 20260903004917 | 91 | 88 | 10.0 | 11.0 | 0.00 | 0.00 | 0.00 | 49 | 1013.8 |
| 20260903004412 | 91 | 94 | 8.0 | 9.0 | 0.00 | 0.00 | 0.00 | 49 | 1013.7 |
| 20260903003908 | 91 | 85 | 10.0 | 11.0 | 0.00 | 0.00 | 0.00 | 48 | 1013.7 |
| 20260903003407 | 91 | 89 | 4.0 | 5.0 | 0.00 | 0.00 | 0.00 | 48 | 1013.7 |
| 20260903002902 | 92 | 88 | 9.0 | 10.0 | 0.00 | 0.00 | 0.00 | 47 | 1013.4 |
| 20260903002357 | 92 | 95 | 8.0 | 9.0 | 0.00 | 0.00 | 0.00 | 46 | 1013.3 |
| 20260903001857 | 92 | 91 | 8.0 | 10.0 | 0.00 | 0.00 | 0.00 | 46 | 1013.4 |
| 20260903001352 | 93 | 111 | 9.0 | 11.0 | 0.00 | 0.00 | 0.00 | 45 | 1013.4 |
| 20260903000852 | 93 | 108 | 8.0 | 10.0 | 0.00 | 0.00 | 0.00 | 45 | 1013.5 |
| 20260903000347 | 93 | 92 | 8.0 | 10.0 | 0.00 | 0.00 | 0.00 | 45 | 1013.5 |
| 20260902235845 | 93 | 83 | 8.0 | 11.0 | 0.00 | 0.00 | 0.00 | 46 | 1013.6 |
| 20260902235340 | 94 | 115 | 15.0 | 20.0 | 0.00 | 0.00 | 0.00 | 46 | 1013.6 |
| 20260902234840 | 94 | 105 | 10.0 | 13.0 | 0.00 | 0.00 | 0.00 | 45 | 1013.3 |
| 20260902234335 | 94 | 79 | 12.0 | 13.0 | 0.00 | 0.00 | 0.00 | 46 | 1013.3 |
| 20260902233833 | 94 | 108 | 12.0 | 14.0 | 0.00 | 0.00 | 0.00 | 46 | 1013.3 |
| 20260902233333 | 95 | 89 | 9.0 | 10.0 | 0.00 | 0.00 | 0.00 | 46 | 1013.5 |
| 20260902232832 | 95 | 107 | 11.0 | 13.0 | 0.00 | 0.00 | 0.00 | 45 | 1013.2 |
| 20260902232327 | 95 | 129 | 9.0 | 10.0 | 0.00 | 0.00 | 0.00 | 45 | 1013.4 |
| 20260902231821 | 95 | 91 | 15.0 | 21.0 | 0.00 | 0.00 | 0.00 | 45 | 1013.1 |
| 20260902231316 | 96 | 97 | 12.0 | 14.0 | 0.00 | 0.00 | 0.00 | 44 | 1013.2 |
| 20260902230811 | 96 | 99 | 12.0 | 14.0 | 0.00 | 0.00 | 0.00 | 43 | 1013.2 |
| 20260902230310 | 96 | 89 | 11.0 | 14.0 | 0.00 | 0.00 | 0.00 | 43 | 1013.2 |
| 20260902225805 | 95 | 84 | 16.0 | 18.0 | 0.00 | 0.00 | 0.00 | 43 | 1013.0 |
| 20260902225300 | 96 | 71 | 9.0 | 11.0 | 0.00 | 0.00 | 0.00 | 42 | 1013.2 |
| 20260902224758 | 98 | 91 | 8.0 | 10.0 | 0.00 | 0.00 | 0.00 | 39 | 1013.1 |
| 20260902224253 | 98 | 70 | 9.0 | 11.0 | 0.00 | 0.00 | 0.00 | 40 | 1012.9 |
| 20260902223749 | 98 | 107 | 10.0 | 11.0 | 0.00 | 0.00 | 0.00 | 41 | 1013.0 |
| 20260902223249 | 96 | 97 | 10.0 | 13.0 | 0.00 | 0.00 | 0.00 | 41 | 1012.8 |
| 20260902222742 | 95 | 92 | 8.0 | 9.0 | 0.00 | 0.00 | 0.00 | 44 | 1013.2 |
| 20260902222236 | 95 | 112 | 4.0 | 6.0 | 0.00 | 0.00 | 0.00 | 45 | 1013.0 |
| 20260902221731 | 96 | 97 | 9.0 | 10.0 | 0.00 | 0.00 | 0.00 | 43 | 1013.0 |
| 20260902221230 | 97 | 92 | 10.0 | 11.0 | 0.00 | 0.00 | 0.00 | 42 | 1013.2 |
| 20260902220726 | 97 | 86 | 14.0 | 17.0 | 0.00 | 0.00 | 0.00 | 40 | 1013.1 |
| 20260902220226 | 97 | 57 | 9.0 | 11.0 | 0.00 | 0.00 | 0.00 | 42 | 1013.1 |
| 20260902215721 | 98 | 73 | 10.0 | 11.0 | 0.00 | 0.00 | 0.00 | 41 | 1013.4 |
| 20260902215217 | 98 | 34 | 9.0 | 10.0 | 0.00 | 0.00 | 0.00 | 41 | 1013.1 |
| 20260902214713 | 98 | 72 | 8.0 | 10.0 | 0.00 | 0.00 | 0.00 | 42 | 1013.4 |
| 20260902214211 | 100 | 97 | 8.0 | 9.0 | 0.00 | 0.00 | 0.00 | 40 | 1013.1 |
| 20260902213707 | 99 | 107 | 6.0 | 8.0 | 0.00 | 0.00 | 0.00 | 39 | 1013.2 |
| 20260902213201 | 99 | 76 | 11.0 | 11.0 | 0.00 | 0.00 | 0.00 | 38 | 1013.5 |
| 20260902212656 | 99 | 70 | 8.0 | 10.0 | 0.00 | 0.00 | 0.00 | 40 | 1013.4 |
| 20260902212152 | 99 | 82 | 9.0 | 9.0 | 0.00 | 0.00 | 0.00 | 40 | 1013.4 |
| 20260902211648 | 99 | 102 | 7.0 | 9.0 | 0.00 | 0.00 | 0.00 | 40 | 1013.5 |
| 20260902211143 | 99 | 95 | 8.0 | 11.0 | 0.00 | 0.00 | 0.00 | 39 | 1013.6 |
| 20260902210642 | 99 | 78 | 3.0 | 5.0 | 0.00 | 0.00 | 0.00 | 40 | 1013.7 |
| 20260902210138 | 99 | 75 | 5.0 | 6.0 | 0.00 | 0.00 | 0.00 | 39 | 1013.7 |
| 20260902205636 | 99 | 65 | 5.0 | 7.0 | 0.00 | 0.00 | 0.00 | 40 | 1013.9 |
| 20260902205131 | 98 | 81 | 3.0 | 5.0 | 0.00 | 0.00 | 0.00 | 40 | 1013.7 |
| 20260902204626 | 99 | 57 | 8.0 | 9.0 | 0.00 | 0.00 | 0.00 | 40 | 1013.6 |
| 20260902204121 | 98 | 64 | 9.0 | 11.0 | 0.00 | 0.00 | 0.00 | 40 | 1013.8 |
| 20260902203616 | 98 | 57 | 5.0 | 6.0 | 0.00 | 0.00 | 0.00 | 40 | 1013.9 |
| 20260902203115 | 98 | 99 | 5.0 | 8.0 | 0.00 | 0.00 | 0.00 | 42 | 1014.0 |
| 20260902202606 | 98 | 106 | 4.0 | 6.0 | 0.00 | 0.00 | 0.00 | 41 | 1014.1 |
| 20260902202103 | 98 | 89 | 7.0 | 8.0 | 0.00 | 0.00 | 0.00 | 40 | 1014.2 |
| 20260902201558 | 98 | 72 | 5.0 | 8.0 | 0.00 | 0.00 | 0.00 | 40 | 1014.3 |
| 20260902201057 | 97 | 91 | 6.0 | 8.0 | 0.00 | 0.00 | 0.00 | 42 | 1014.6 |
| 20260902200552 | 98 | 105 | 10.0 | 13.0 | 0.00 | 0.00 | 0.00 | 41 | 1014.4 |
| 20260902200048 | 98 | 104 | 10.0 | 13.0 | 0.00 | 0.00 | 0.00 | 41 | 1014.6 |
| 20260902195544 | 98 | 54 | 10.0 | 13.0 | 0.00 | 0.00 | 0.00 | 40 | 1014.5 |
| 20260902195042 | 98 | 68 | 7.0 | 9.0 | 0.00 | 0.00 | 0.00 | 41 | 1014.8 |
| 20260902194536 | 98 | 92 | 8.0 | 9.0 | 0.00 | 0.00 | 0.00 | 40 | 1014.8 |
| 20260902194032 | 98 | 90 | 8.0 | 11.0 | 0.00 | 0.00 | 0.00 | 40 | 1014.8 |
| 20260902193528 | 98 | 76 | 9.0 | 11.0 | 0.00 | 0.00 | 0.00 | 40 | 1014.9 |
| 20260902193027 | 98 | 74 | 6.0 | 8.0 | 0.00 | 0.00 | 0.00 | 40 | 1014.9 |
| 20260902192526 | 98 | 47 | 7.0 | 8.0 | 0.00 | 0.00 | 0.00 | 40 | 1015.0 |
| 20260902192025 | 97 | 60 | 4.0 | 6.0 | 0.00 | 0.00 | 0.00 | 42 | 1015.0 |
| 20260902191520 | 98 | 87 | 3.0 | 3.0 | 0.00 | 0.00 | 0.00 | 40 | 1015.1 |
| 20260902191015 | 98 | 65 | 5.0 | 6.0 | 0.00 | 0.00 | 0.00 | 40 | 1015.0 |
| 20260902190510 | 97 | 113 | 8.0 | 10.0 | 0.00 | 0.00 | 0.00 | 41 | 1015.2 |
| 20260902190006 | 98 | 81 | 7.0 | 8.0 | 0.00 | 0.00 | 0.00 | 40 | 1015.5 |
| 20260902185502 | 97 | 111 | 6.0 | 8.0 | 0.00 | 0.00 | 0.00 | 41 | 1015.5 |
| 20260902184956 | 97 | 79 | 5.0 | 7.0 | 0.00 | 0.00 | 0.00 | 41 | 1015.6 |
| 20260902184452 | 97 | 54 | 9.0 | 10.0 | 0.00 | 0.00 | 0.00 | 41 | 1015.6 |
| 20260902183947 | 97 | 111 | 9.0 | 10.0 | 0.00 | 0.00 | 0.00 | 42 | 1015.9 |
| 20260902183444 | 96 | 113 | 1.0 | 2.0 | 0.00 | 0.00 | 0.00 | 43 | 1015.9 |
| 20260902182939 | 96 | 95 | 1.0 | 2.0 | 0.00 | 0.00 | 0.00 | 43 | 1015.9 |
| 20260902182435 | 96 | 95 | 9.0 | 10.0 | 0.00 | 0.00 | 0.00 | 42 | 1015.8 |
| 20260902181931 | 96 | 92 | 10.0 | 11.0 | 0.00 | 0.00 | 0.00 | 42 | 1016.1 |
| 20260902181426 | 97 | 83 | 4.0 | 5.0 | 0.00 | 0.00 | 0.00 | 42 | 1016.1 |
| 20260902180920 | 96 | 85 | 4.0 | 6.0 | 0.00 | 0.00 | 0.00 | 42 | 1016.2 |
| 20260902180416 | 96 | 154 | 7.0 | 8.0 | 0.00 | 0.00 | 0.00 | 42 | 1016.3 |
| 20260902175906 | 96 | 101 | 8.0 | 11.0 | 0.00 | 0.00 | 0.00 | 44 | 1016.7 |
| 20260902175401 | 96 | 75 | 5.0 | 7.0 | 0.00 | 0.00 | 0.00 | 44 | 1016.9 |
| 20260902174856 | 95 | 82 | 9.0 | 11.0 | 0.00 | 0.00 | 0.00 | 43 | 1016.8 |
| 20260902174353 | 95 | 102 | 5.0 | 7.0 | 0.00 | 0.00 | 0.00 | 46 | 1016.9 |
| 20260902173848 | 95 | 105 | 6.0 | 8.0 | 0.00 | 0.00 | 0.00 | 44 | 1017.0 |
| 20260902173348 | 94 | 79 | 5.0 | 7.0 | 0.00 | 0.00 | 0.00 | 46 | 1017.0 |
| 20260902172842 | 94 | 136 | 4.0 | 5.0 | 0.00 | 0.00 | 0.00 | 47 | 1017.1 |
| 20260902172336 | 95 | 112 | 8.0 | 9.0 | 0.00 | 0.00 | 0.00 | 47 | 1016.9 |
| 20260902171832 | 94 | 96 | 5.0 | 7.0 | 0.00 | 0.00 | 0.00 | 48 | 1017.2 |
| 20260902171327 | 94 | 83 | 5.0 | 7.0 | 0.00 | 0.00 | 0.00 | 47 | 1017.6 |
| 20260902170824 | 94 | 119 | 5.0 | 6.0 | 0.00 | 0.00 | 0.00 | 47 | 1017.5 |
| 20260902170319 | 94 | 125 | 3.0 | 3.0 | 0.00 | 0.00 | 0.00 | 48 | 1017.5 |
| 20260902165814 | 94 | 133 | 3.0 | 3.0 | 0.00 | 0.00 | 0.00 | 47 | 1017.7 |
| 20260902165313 | 93 | 103 | 4.0 | 5.0 | 0.00 | 0.00 | 0.00 | 50 | 1017.8 |
| 20260902164808 | 93 | 117 | 7.0 | 8.0 | 0.00 | 0.00 | 0.00 | 48 | 1018.0 |
| 20260902164303 | 92 | 127 | 6.0 | 7.0 | 0.00 | 0.00 | 0.00 | 51 | 1018.0 |
| 20260902163752 | 92 | 119 | 2.0 | 3.0 | 0.00 | 0.00 | 0.00 | 51 | 1017.9 |
| 20260902163251 | 92 | 97 | 7.0 | 8.0 | 0.00 | 0.00 | 0.00 | 51 | 1017.8 |
| 20260902162750 | 92 | 105 | 6.0 | 7.0 | 0.00 | 0.00 | 0.00 | 50 | 1018.0 |
| 20260902162245 | 92 | 96 | 5.0 | 7.0 | 0.00 | 0.00 | 0.00 | 53 | 1018.3 |
| 20260902161739 | 91 | 98 | 4.0 | 6.0 | 0.00 | 0.00 | 0.00 | 53 | 1018.0 |
| 20260902161235 | 91 | 115 | 7.0 | 9.0 | 0.00 | 0.00 | 0.00 | 53 | 1018.2 |
| 20260902160732 | 91 | 126 | 7.0 | 8.0 | 0.00 | 0.00 | 0.00 | 53 | 1018.1 |
| 20260902160226 | 90 | 137 | 4.0 | 5.0 | 0.00 | 0.00 | 0.00 | 56 | 1018.0 |
| 20260902155724 | 89 | 143 | 4.0 | 5.0 | 0.00 | 0.00 | 0.00 | 56 | 1018.0 |
| 20260902155223 | 90 | 114 | 7.0 | 9.0 | 0.00 | 0.00 | 0.00 | 56 | 1017.8 |
| 20260902154718 | 89 | 83 | 7.0 | 8.0 | 0.00 | 0.00 | 0.00 | 58 | 1018.1 |
| 20260902154213 | 89 | 88 | 5.0 | 7.0 | 0.00 | 0.00 | 0.00 | 57 | 1018.1 |
| 20260902153712 | 89 | 105 | 5.0 | 7.0 | 0.00 | 0.00 | 0.00 | 58 | 1017.9 |
| 20260902153207 | 90 | 93 | 7.0 | 8.0 | 0.00 | 0.00 | 0.00 | 58 | 1018.2 |
| 20260902152703 | 89 | 77 | 2.0 | 3.0 | 0.00 | 0.00 | 0.00 | 59 | 1017.9 |
| 20260902152158 | 89 | 82 | 1.0 | 1.0 | 0.00 | 0.00 | 0.00 | 59 | 1018.2 |
| 20260902151654 | 89 | 117 | 2.0 | 2.0 | 0.00 | 0.00 | 0.00 | 58 | 1018.0 |
| 20260902151148 | 89 | 112 | 4.0 | 5.0 | 0.00 | 0.00 | 0.00 | 59 | 1018.0 |
| 20260902150643 | 88 | 105 | 1.0 | 2.0 | 0.00 | 0.00 | 0.00 | 62 | 1018.0 |
| 20260902150139 | 87 | 101 | 4.0 | 5.0 | 0.00 | 0.00 | 0.00 | 62 | 1018.1 |
| 20260902145633 | 87 | 87 | 4.0 | 6.0 | 0.00 | 0.00 | 0.00 | 62 | 1017.9 |
| 20260902145133 | 86 | 123 | 1.0 | 1.0 | 0.00 | 0.00 | 0.00 | 64 | 1017.9 |
| 20260902144629 | 86 | 136 | 3.0 | 3.0 | 0.00 | 0.00 | 0.00 | 65 | 1017.9 |
| 20260902144124 | 86 | 113 | 3.0 | 3.0 | 0.00 | 0.00 | 0.00 | 66 | 1017.7 |
| 20260902143619 | 86 | 120 | 4.0 | 5.0 | 0.00 | 0.00 | 0.00 | 66 | 1018.0 |
| 20260902143115 | 85 | 116 | 3.0 | 3.0 | 0.00 | 0.00 | 0.00 | 68 | 1018.0 |
| 20260902142610 | 85 | 112 | 5.0 | 7.0 | 0.00 | 0.00 | 0.00 | 68 | 1018.1 |
| 20260902142106 | 84 | 112 | 2.0 | 3.0 | 0.00 | 0.00 | 0.00 | 69 | 1017.7 |
| 20260902141605 | 84 | 111 | 5.0 | 6.0 | 0.00 | 0.00 | 0.00 | 69 | 1018.0 |
| 20260902141101 | 83 | 97 | 4.0 | 5.0 | 0.00 | 0.00 | 0.00 | 71 | 1017.9 |
| 20260902140555 | 83 | 132 | 5.0 | 7.0 | 0.00 | 0.00 | 0.00 | 72 | 1017.9 |
| 20260902140051 | 82 | 88 | 5.0 | 6.0 | 0.00 | 0.00 | 0.00 | 72 | 1017.8 |
| 20260902135551 | 83 | 93 | 5.0 | 6.0 | 0.00 | 0.00 | 0.00 | 71 | 1017.8 |
| 20260902135051 | 82 | 94 | 6.0 | 7.0 | 0.00 | 0.00 | 0.00 | 72 | 1017.9 |
| 20260902134546 | 82 | 80 | 5.0 | 6.0 | 0.00 | 0.00 | 0.00 | 72 | 1017.8 |
| 20260902134041 | 82 | 92 | 5.0 | 6.0 | 0.00 | 0.00 | 0.00 | 73 | 1017.6 |
| 20260902133535 | 82 | 82 | 5.0 | 6.0 | 0.00 | 0.00 | 0.00 | 72 | 1017.8 |
| 20260902133030 | 81 | 77 | 4.0 | 6.0 | 0.00 | 0.00 | 0.00 | 73 | 1017.8 |
| 20260902132525 | 81 | 82 | 4.0 | 5.0 | 0.00 | 0.00 | 0.00 | 74 | 1017.7 |
| 20260902132020 | 81 | 102 | 3.0 | 3.0 | 0.00 | 0.00 | 0.00 | 74 | 1017.8 |
| 20260902131517 | 80 | 91 | 4.0 | 5.0 | 0.00 | 0.00 | 0.00 | 75 | 1017.7 |
| 20260902131016 | 80 | 94 | 4.0 | 5.0 | 0.00 | 0.00 | 0.00 | 75 | 1017.7 |
| 20260902130512 | 79 | 83 | 4.0 | 5.0 | 0.00 | 0.00 | 0.00 | 77 | 1017.8 |
| 20260902130008 | 79 | 101 | 3.0 | 3.0 | 0.00 | 0.00 | 0.00 | 78 | 1017.7 |
| 20260902125503 | 78 | 93 | 2.0 | 2.0 | 0.00 | 0.00 | 0.00 | 80 | 1017.7 |
| 20260902124959 | 77 | 127 | 1.0 | 2.0 | 0.00 | 0.00 | 0.00 | 81 | 1017.7 |
| 20260902124455 | 77 | 127 | 2.0 | 2.0 | 0.00 | 0.00 | 0.00 | 81 | 1017.7 |
| 20260902123949 | 76 | 127 | 2.0 | 2.0 | 0.00 | 0.00 | 0.00 | 82 | 1017.6 |
| 20260902123446 | 76 | 128 | 2.0 | 2.0 | 0.00 | 0.00 | 0.00 | 83 | 1017.5 |
| 20260902122944 | 75 | 128 | 1.0 | 1.0 | 0.00 | 0.00 | 0.00 | 83 | 1017.6 |
| 20260902122440 | 75 | 128 | 1.0 | 1.0 | 0.00 | 0.00 | 0.00 | 83 | 1017.5 |
| 20260902121936 | 75 | 128 | 1.0 | 1.0 | 0.00 | 0.00 | 0.00 | 83 | 1017.5 |
| 20260902121436 | 74 | 128 | 1.0 | 1.0 | 0.00 | 0.00 | 0.00 | 84 | 1017.6 |
| 20260902120930 | 74 | 128 | 1.0 | 1.0 | 0.00 | 0.00 | 0.00 | 83 | 1017.3 |
| 20260902120427 | 74 | 128 | 0.0 | 1.0 | 0.00 | 0.00 | 0.00 | 83 | 1017.3 |
| 20260902115926 | 74 | 128 | 0.0 | 1.0 | 0.00 | 0.00 | 0.00 | 83 | 1017.4 |
| 20260902115422 | 74 | 128 | 0.0 | 0.0 | 0.00 | 0.00 | 0.00 | 84 | 1017.5 |
| 20260902114919 | 74 | 128 | 0.0 | 1.0 | 0.00 | 0.00 | 0.00 | 84 | 1017.6 |
| 20260902114414 | 74 | 128 | 0.0 | 1.0 | 0.00 | 0.00 | 0.00 | 84 | 1017.4 |
| 20260902113909 | 74 | 128 | 0.0 | 0.0 | 0.00 | 0.00 | 0.00 | 84 | 1017.6 |
| 20260902113405 | 74 | 128 | 0.0 | 0.0 | 0.00 | 0.00 | 0.00 | 84 | 1017.5 |
| 20260902112904 | 75 | 128 | 1.0 | 1.0 | 0.00 | 0.00 | 0.00 | 83 | 1017.4 |
| 20260902112401 | 75 | 128 | 1.0 | 1.0 | 0.00 | 0.00 | 0.00 | 83 | 1017.5 |
| 20260902111856 | 75 | 128 | 2.0 | 2.0 | 0.00 | 0.00 | 0.00 | 83 | 1017.3 |
| 20260902111353 | 75 | 128 | 1.0 | 1.0 | 0.00 | 0.00 | 0.00 | 83 | 1017.3 |
| 20260902110848 | 75 | 128 | 0.0 | 0.0 | 0.00 | 0.00 | 0.00 | 82 | 1017.3 |
| 20260902110344 | 75 | 128 | 1.0 | 1.0 | 0.00 | 0.00 | 0.00 | 82 | 1017.4 |
| 20260902105843 | 75 | 129 | 0.0 | 1.0 | 0.00 | 0.00 | 0.00 | 81 | 1017.4 |
| 20260902105338 | 75 | 129 | 1.0 | 1.0 | 0.00 | 0.00 | 0.00 | 79 | 1017.6 |
| 20260902104833 | 76 | 129 | 1.0 | 1.0 | 0.00 | 0.00 | 0.00 | 77 | 1017.4 |
| 20260902104329 | 76 | 129 | 0.0 | 0.0 | 0.00 | 0.00 | 0.00 | 78 | 1017.5 |
| 20260902103824 | 76 | 129 | 0.0 | 0.0 | 0.00 | 0.00 | 0.00 | 78 | 1017.2 |
| 20260902103319 | 76 | 129 | 0.0 | 0.0 | 0.00 | 0.00 | 0.00 | 79 | 1017.3 |
| 20260902102814 | 76 | 129 | 0.0 | 0.0 | 0.00 | 0.00 | 0.00 | 78 | 1017.5 |
| 20260902102312 | 77 | 129 | 0.0 | 0.0 | 0.00 | 0.00 | 0.00 | 78 | 1017.3 |
| 20260902101807 | 77 | 129 | 0.0 | 0.0 | 0.00 | 0.00 | 0.00 | 78 | 1017.2 |
| 20260902101307 | 77 | 129 | 0.0 | 0.0 | 0.00 | 0.00 | 0.00 | 77 | 1017.4 |
| 20260902100801 | 77 | 129 | 0.0 | 0.0 | 0.00 | 0.00 | 0.00 | 77 | 1017.1 |
| 20260902100301 | 78 | 129 | 0.0 | 0.0 | 0.00 | 0.00 | 0.00 | 76 | 1017.2 |
| 20260902095755 | 78 | 129 | 0.0 | 0.0 | 0.00 | 0.00 | 0.00 | 76 | 1017.2 |
| 20260902095250 | 78 | 129 | 0.0 | 0.0 | 0.00 | 0.00 | 0.00 | 76 | 1017.2 |
| 20260902094744 | 78 | 129 | 0.0 | 0.0 | 0.00 | 0.00 | 0.00 | 76 | 1017.1 |
| 20260902094241 | 78 | 129 | 0.0 | 0.0 | 0.00 | 0.00 | 0.00 | 76 | 1017.2 |
| 20260902093740 | 78 | 129 | 0.0 | 0.0 | 0.00 | 0.00 | 0.00 | 75 | 1017.0 |